TimeCST,TemperatureF,Dew PointF,Humidity,Sea Level PressureIn,VisibilityMPH,Wind Direction,Wind SpeedMPH,Gust SpeedMPH,PrecipitationIn,Events,Conditions,WindDirDegrees,DateUTC
12:15 AM,50.4,46.0,85,30.23,10.0,East,3.5,-,N/A,,Clear,80,2013-03-07 06:15:00
12:35 AM,49.8,45.9,86,30.23,10.0,Calm,Calm,-,N/A,,Scattered Clouds,0,2013-03-07 06:35:00
12:55 AM,48.9,45.0,86,30.23,10.0,Calm,Calm,-,N/A,,Clear,0,2013-03-07 06:55:00
1:15 AM,48.0,43.9,86,30.21,10.0,SE,4.6,-,N/A,,Clear,130,2013-03-07 07:15:00
1:35 AM,47.3,43.3,86,30.20,10.0,ESE,4.6,-,N/A,,Clear,110,2013-03-07 07:35:00
1:55 AM,51.3,48.0,89,30.20,10.0,East,4.6,-,N/A,,Clear,100,2013-03-07 07:55:00
2:15 AM,49.8,46.2,87,30.18,10.0,ENE,4.6,-,N/A,,Clear,70,2013-03-07 08:15:00
2:35 AM,49.6,46.4,89,30.19,10.0,Calm,Calm,-,N/A,,Clear,0,2013-03-07 08:35:00
2:55 AM,50.0,46.9,89,30.17,10.0,East,4.6,-,N/A,,Clear,90,2013-03-07 08:55:00
3:15 AM,51.8,48.9,90,30.16,10.0,East,3.5,-,N/A,,Clear,90,2013-03-07 09:15:00
3:35 AM,52.3,49.5,90,30.15,10.0,East,4.6,-,N/A,,Clear,100,2013-03-07 09:35:00
3:55 AM,51.6,48.7,90,30.15,10.0,Calm,Calm,-,N/A,,Clear,0,2013-03-07 09:55:00
4:15 AM,49.1,46.8,92,30.15,10.0,Calm,Calm,-,N/A,,Clear,0,2013-03-07 10:15:00
4:35 AM,50.5,48.4,92,30.14,10.0,Calm,Calm,-,N/A,,Clear,0,2013-03-07 10:35:00
4:55 AM,50.5,48.2,92,30.15,10.0,Calm,Calm,-,N/A,,Clear,0,2013-03-07 10:55:00
5:15 AM,50.4,48.4,93,30.15,10.0,Calm,Calm,-,N/A,,Clear,0,2013-03-07 11:15:00
5:35 AM,50.4,48.2,92,30.16,10.0,Calm,Calm,-,N/A,,Clear,0,2013-03-07 11:35:00
5:55 AM,50.2,48.0,92,30.16,10.0,Calm,Calm,-,N/A,,Clear,0,2013-03-07 11:55:00
6:15 AM,50.7,48.7,93,30.16,10.0,NE,3.5,-,N/A,,Clear,40,2013-03-07 12:15:00
6:35 AM,50.4,48.6,94,30.17,10.0,ENE,3.5,-,N/A,,Clear,60,2013-03-07 12:35:00
6:55 AM,51.3,49.3,93,30.18,10.0,Calm,Calm,-,N/A,,Clear,0,2013-03-07 12:55:00
7:15 AM,51.1,48.9,92,30.18,10.0,NE,3.5,-,N/A,,Clear,50,2013-03-07 13:15:00
7:35 AM,51.8,50.0,94,30.18,10.0,NNE,3.5,-,N/A,,Clear,30,2013-03-07 13:35:00
7:55 AM,54.3,52.5,94,30.19,10.0,Calm,Calm,-,N/A,,Clear,0,2013-03-07 13:55:00
8:15 AM,59.4,56.5,90,30.20,10.0,ENE,3.5,-,N/A,,Clear,70,2013-03-07 14:15:00
8:35 AM,65.1,59.4,82,30.20,10.0,ESE,8.1,-,N/A,,Clear,110,2013-03-07 14:35:00
8:55 AM,68.0,59.4,74,30.21,10.0,SE,8.1,-,N/A,,Scattered Clouds,130,2013-03-07 14:55:00
9:15 AM,69.6,58.3,67,30.20,10.0,ESE,10.4,-,N/A,,Scattered Clouds,120,2013-03-07 15:15:00
9:35 AM,71.1,57.6,62,30.21,10.0,ESE,12.7,17.3,N/A,,Clear,120,2013-03-07 15:35:00
9:55 AM,71.1,57.2,61,30.22,10.0,ESE,13.8,-,N/A,,Mostly Cloudy,110,2013-03-07 15:55:00
10:15 AM,72.0,57.0,59,30.23,10.0,ESE,11.5,-,N/A,,Mostly Cloudy,120,2013-03-07 16:15:00
10:35 AM,71.2,57.2,61,30.22,10.0,ESE,13.8,-,N/A,,Overcast,120,2013-03-07 16:35:00
10:55 AM,72.3,57.4,59,30.22,10.0,ESE,11.5,20.7,N/A,,Overcast,120,2013-03-07 16:55:00
11:15 AM,73.6,57.4,57,30.21,10.0,ESE,18.4,21.9,N/A,,Mostly Cloudy,120,2013-03-07 17:15:00
11:35 AM,74.5,57.6,55,30.20,10.0,East,17.3,-,N/A,,Scattered Clouds,100,2013-03-07 17:35:00
11:55 AM,75.2,58.1,55,30.20,10.0,East,18.4,25.3,N/A,,Clear,100,2013-03-07 17:55:00
12:15 PM,75.2,58.1,55,30.19,10.0,ESE,19.6,25.3,N/A,,Scattered Clouds,110,2013-03-07 18:15:00
12:35 PM,74.7,58.1,56,30.18,10.0,SE,19.6,24.2,N/A,,Mostly Cloudy,140,2013-03-07 18:35:00
12:55 PM,75.0,58.1,56,30.17,10.0,ESE,20.7,25.3,N/A,,Mostly Cloudy,110,2013-03-07 18:55:00
1:15 PM,73.8,58.3,58,30.16,10.0,ESE,16.1,26.5,N/A,,Mostly Cloudy,120,2013-03-07 19:15:00
1:35 PM,73.8,58.6,59,30.16,10.0,SE,21.9,26.5,N/A,,Overcast,130,2013-03-07 19:35:00
1:55 PM,74.1,58.5,58,30.14,10.0,ESE,18.4,25.3,N/A,,Scattered Clouds,110,2013-03-07 19:55:00
2:15 PM,74.3,58.6,58,30.14,10.0,ESE,17.3,26.5,N/A,,Clear,110,2013-03-07 20:15:00
2:35 PM,73.8,58.6,59,30.14,10.0,ESE,20.7,25.3,N/A,,Scattered Clouds,110,2013-03-07 20:35:00
2:55 PM,73.2,58.6,60,30.13,10.0,ESE,21.9,25.3,N/A,,Mostly Cloudy,110,2013-03-07 20:55:00
3:15 PM,73.8,58.6,59,30.13,10.0,ESE,19.6,27.6,N/A,,Mostly Cloudy,120,2013-03-07 21:15:00
3:35 PM,72.1,58.5,62,30.13,10.0,ESE,21.9,27.6,N/A,,Mostly Cloudy,120,2013-03-07 21:35:00
3:55 PM,71.6,58.5,63,30.13,10.0,SE,19.6,24.2,N/A,,Mostly Cloudy,130,2013-03-07 21:55:00
4:15 PM,72.1,58.6,62,30.12,10.0,SE,21.9,26.5,N/A,,Scattered Clouds,130,2013-03-07 22:15:00
4:35 PM,71.4,58.8,64,30.12,10.0,ESE,16.1,24.2,N/A,,Scattered Clouds,120,2013-03-07 22:35:00
4:55 PM,70.9,59.2,66,30.12,10.0,SE,17.3,24.2,N/A,,Mostly Cloudy,130,2013-03-07 22:55:00
5:15 PM,70.2,59.2,68,30.12,10.0,ESE,17.3,21.9,N/A,,Mostly Cloudy,120,2013-03-07 23:15:00
5:35 PM,69.8,59.4,69,30.12,10.0,ESE,18.4,-,N/A,,Scattered Clouds,120,2013-03-07 23:35:00
5:55 PM,68.7,59.7,73,30.14,10.0,ESE,13.8,19.6,N/A,,Scattered Clouds,120,2013-03-07 23:55:00
7:35 PM,66.2,59.9,80,30.14,10.0,ESE,12.7,19.6,N/A,,Clear,110,2013-03-08 01:35:00
7:55 PM,66.2,60.1,81,30.14,10.0,ESE,15.0,-,N/A,,Clear,120,2013-03-08 01:55:00
8:15 PM,66.2,59.9,80,30.14,10.0,ESE,11.5,18.4,N/A,,Clear,120,2013-03-08 02:15:00
8:35 PM,66.2,60.1,81,30.14,10.0,ESE,13.8,-,N/A,,Clear,120,2013-03-08 02:35:00
8:55 PM,66.4,60.3,81,30.15,10.0,ESE,10.4,-,N/A,,Clear,110,2013-03-08 02:55:00
9:15 PM,66.2,60.4,82,30.15,10.0,ESE,12.7,-,N/A,,Clear,110,2013-03-08 03:15:00
9:35 PM,66.2,60.8,83,30.15,10.0,ESE,11.5,-,N/A,,Clear,120,2013-03-08 03:35:00
9:55 PM,65.8,61.0,84,30.15,10.0,ESE,12.7,-,N/A,,Scattered Clouds,120,2013-03-08 03:55:00
10:15 PM,66.4,61.3,84,30.15,10.0,ESE,13.8,-,N/A,,Scattered Clouds,120,2013-03-08 04:15:00
10:35 PM,66.4,61.5,84,30.15,10.0,ESE,10.4,-,N/A,,Mostly Cloudy,120,2013-03-08 04:35:00
10:55 PM,66.6,61.9,85,30.14,10.0,ESE,11.5,-,N/A,,Overcast,120,2013-03-08 04:55:00
11:15 PM,67.1,61.9,83,30.14,10.0,SE,12.7,-,N/A,,Overcast,130,2013-03-08 05:15:00
11:35 PM,66.9,61.7,83,30.12,10.0,SE,13.8,-,N/A,,Mostly Cloudy,130,2013-03-08 05:35:00
11:55 PM,66.6,61.7,84,30.14,10.0,ESE,9.2,-,N/A,,Mostly Cloudy,120,2013-03-08 05:55:00